Regional Weather Roundup
Issued by NWS

Home | Current Version | Previous Version | Text Only | Print | Product List | Glossary Off
Versions: 1 2 3 4 5 6 7 8 9 10 11 12 13 14 15 16 17 18 19 20 21 22 23 24 25 26 27 28 29 30 31 32 33 34 35 36 37 38 39 40 41 42 43 44 45 46 47 48 49 50

742
ASUS43 KMPX 031501
RWRMN
WEATHER ROUNDUP FOR MINNESOTA
NATIONAL WEATHER SERVICE TWIN CITIES/CHANHASSEN MN
1000 AM CDT TUE MAY 03 2016


NOTE: "FAIR" INDICATES FEW OR NO CLOUDS BELOW 12,000 FEET WITH NO
SIGNIFICANT WEATHER AND/OR OBSTRUCTIONS TO VISIBILITY. N/A MEANS
CURRENT SKY AND/OR WEATHER CONDITIONS ARE NOT AVAILABLE.

MNZ060>063-068>070-031600-
   Twin Cities Metro

CITY           SKY/WX    TMP DP  RH WIND       PRES   REMARKS
TWIN CITIES    PTSUNNY   59  41  51 W12       29.91F
ST PAUL        MOSUNNY   60  42  51 W10       29.91F
CRYSTAL        SUNNY     63  40  42 W13       29.90S
BLAINE         PTSUNNY   63  43  48 MISG        N/A
EDEN PRAIRIE   MOSUNNY   60  40  47 W10       29.92S
SOUTH ST PAUL  SUNNY     61  41  48 W7        29.90F
LAKE ELMO      FAIR      61  43  51 W9        29.90F
$$
MNZ001>005-007-008-013>017-022>024-027-028-031600-
   Northwest Minnesota

CITY           SKY/WX    TMP DP  RH WIND       PRES   REMARKS
BEMIDJI        CLOUDY    60  38  44 W21G26    29.79F
HALLOCK        MOSUNNY   61  28  29 N24       29.86R
ROSEAU         SUNNY     61  36  39 N18       29.81S
WARROAD        SUNNY     59  37  44 NW14      29.80S
THIEF RVR FALL PTSUNNY   59  37  44 NW15      29.84R
CROOKSTON      CLOUDY    63  39  42 NW17G23   29.84F
FOSSTON        MOSUNNY   57  37  47 W18G26    29.83F
DETROIT LAKES  MOSUNNY   59  43  55 W13       29.88F
MOORHEAD       MOSUNNY   61  43  51 W12       29.88F
PARK RAPIDS    CLOUDY    62  40  44 W22G29    29.83F
MAHNOMEN       FAIR      58  40  51 W20       29.84F
$$
MNZ006-009>011-018-025>026-031600-
   North Central Minnesota

CITY           SKY/WX    TMP DP  RH WIND       PRES   REMARKS
BAUDETTE       SUNNY     57  35  43 NW17G26   29.77R
FLAG ISLAND    SUNNY     54  32  43 N23       29.79R
INTL FALLS     PTSUNNY   59  39  47 NW10      29.71F
WASKISH        CLOUDY    55  45  67 W8        29.77F
BIG FORK       CLOUDY    57  36  44 W10G23    29.75S
LONGVILLE      PTSUNNY   61  37  41 W9G24     29.80F
GRAND RAPIDS   CLOUDY    57  34  41 W13G22    29.78F
CRANE LAKE     LGT RAIN  52  39  62 W3        29.72F
ORR            CLOUDY    54  36  50 W10G16    29.70F
COOK           DRIZZLE   55  39  54 W15       29.73S
WALKER         PTSUNNY   60  36  41 W20G31    29.79F
$$
MNZ012-019>021-037-031600-
   Northeast Minnesota

CITY           SKY/WX    TMP DP  RH WIND       PRES   REMARKS
DULUTH         CLOUDY    59  33  37 W15       29.76F
ELY            RAIN      52  39  62 W10G18    29.71S
HIBBING        CLOUDY    55  34  45 W8G17     29.73F
EVELETH        CLOUDY    57  34  41 W14       29.74F
DULUTH HARBOR  CLOUDY    59  39  47 SW9       29.76F
TWO HARBORS    LGT RAIN  61  41  48 W9G16     29.72S
SILVER BAY     DRIZZLE   54  41  62 SW7       29.70F
GRAND MARAIS     N/A     42  36  79 S3        29.65F
G MARAIS ARPRT CLOUDY    55  36  47 NW13G18   29.66F
$$
MNZ029>031-032-039>041-046>048-054>057-064-031600-
   West Central Minnesota

CITY           SKY/WX    TMP DP  RH WIND       PRES   REMARKS
FERGUS FALLS   MOSUNNY   57  45  62 W16       29.89F
WHEATON        MOSUNNY   63  46  55 W14G21    29.94F
MORRIS         MOSUNNY   63  43  48 W13       29.92F
ALEXANDRIA     CLOUDY    59  41  51 W18       29.92F
ELBOW LAKE     FAIR      58  43  56 NW16      29.92F
WADENA         PTSUNNY   57  43  58 W17G23    29.87S
GLENWOOD       CLOUDY    59  43  55 W13       29.92F
APPLETON       SUNNY     61  43  51 W12       29.94F
BENSON         SUNNY     63  39  42 NW15      29.94F
ORTONVILLE     SUNNY     61  43  51 W10       29.94F
MADISON        SUNNY     61  43  51 W13       29.95F
WILLMAR        FAIR      61  43  51 W14       29.95F
$$
MNZ033>034-036-042>043-049>051-058-059-031600-
   Central Minnesota

CITY           SKY/WX    TMP DP  RH WIND       PRES   REMARKS
ST CLOUD       MOSUNNY   61  39  44 W17       29.89F
SAUK CENTRE    FAIR      59  41  51 W14G23    29.91F
PAYNESVILLE    SUNNY     61  39  43 W16       29.93S
AITKIN         PTSUNNY   64  30  27 W10G17    29.80F
PINE RIVER     MOSUNNY   61  41  48 W14G20    29.86F
BRAINERD       CLOUDY    61  38  42 W13G28    29.84F
STAPLES        CLOUDY    61  39  44 W24       29.87S
LONG PRAIRIE   FAIR      55  39  54 W12G20    29.91F
LITTLE FALLS   CLOUDY    59  37  44 W12G22    29.87F
LITCHFIELD     SUNNY     63  41  45 W15G21    29.93S
BUFFALO        MOSUNNY   60  40  47 W12       29.92F
MAPLE LAKE     MOSUNNY   63  43  49 W8        29.91F
HUTCHINSON     MOSUNNY   62  43  50 W12       29.94F
$$
MNZ037-044-045-052-053-031600-
   East Central Minnesota

CITY           SKY/WX    TMP DP  RH WIND       PRES   REMARKS
PRINCETON      MOSUNNY   63  41  45 W13       29.88F
MORA           MOSUNNY   61  36  39 W13       29.86F
CAMBRIDGE      MOSUNNY   64  45  48 W16       29.86F
RUSH CITY      CLOUDY    61  40  46 W12       29.86F
MOOSE LAKE     CLOUDY    63  37  39 W13G20    29.78F
HINCKLEY       FAIR      61  37  41 W13G23    29.83F
CLOQUET        CLOUDY    61  30  31 W14G23    29.77F
MCGREGOR       CLOUDY    59  37  44 W10G17    29.81F
$$
MNZ071>073-080-081-089-090-097-098-031600-
   Southwest Minnesota

CITY           SKY/WX    TMP DP  RH WIND       PRES   REMARKS
MONTEVIDEO     SUNNY     63  43  48 NW9       29.97F
GRANITE FALLS  SUNNY     63  44  50 W15       29.98S
CANBY          SUNNY     62  46  54 NW16G22   29.97F
MARSHALL       SUNNY     60  43  53 W16       29.97F
REDWOOD FALLS  MOSUNNY   62  40  44 W13       29.95F
OLIVIA         SUNNY     59  41  51 W15       29.94S
PIPESTONE      SUNNY     55  45  67 W9        29.99F
WINDOM         SUNNY     61  39  44 W15       29.98F
WORTHINGTON    SUNNY     57  42  57 W15       30.00F
JACKSON        SUNNY     59  39  47 W15       29.99F
TRACY          SUNNY     61  43  52 W12G17    29.97F
SLAYTON        SUNNY     56  42  58 W12       30.00F
$$
MNZ065>067-074>077-082>085-091>093-031600-
   South Central Minnesota

CITY           SKY/WX    TMP DP  RH WIND       PRES   REMARKS
MANKATO        SUNNY     61  43  51 W12       29.95F
NEW ULM        SUNNY     59  43  55 W10       29.95F
ST JAMES       SUNNY     57  37  47 W15G23    29.97F
FAIRMONT       SUNNY     61  39  44 W13       29.97F
GLENCOE        SUNNY     60  44  55 W12       29.93S
FARIBAULT      SUNNY     61  43  51 W10       29.94F
OWATONNA       SUNNY     61  41  48 W13       29.94F
WASECA         SUNNY     59  41  51 W14       29.96F
ALBERT LEA     SUNNY     61  43  51 W8        29.96F
$$
MNZ078>079-086>088-094>096-031600-
   Southeast Minnesota

CITY           SKY/WX    TMP DP  RH WIND       PRES   REMARKS
ROCHESTER      SUNNY     61  44  53 W15       29.95F
RED WING       SUNNY     63  37  39 W6        29.90F
STANTON        SUNNY     63  41  44 W12       29.91F
DODGE CENTER   MOSUNNY   61  43  51 W15       29.94F
WINONA         SUNNY     61  41  48 NW6       29.92F
AUSTIN         SUNNY     61  43  51 W12G17    29.95F
PRESTON        SUNNY     60  42  50 W14G20    29.95F
$$
ABBREVIATIONS USED IN REMARKS
   TC - TEMPERATURES IN CELSIUS
  WCI - WIND CHILL INDEX
   HX - HEAT INDEX
  VSB - VISIBILITY
$$




USA.gov is the U.S. government's official web portal to all federal, state and local government web resources and services.